Regional Weather Roundup
Issued by NWS

Home | Current Version | Previous Version | Text Only | Print | Product List | Glossary Off
Versions: 1 2 3 4 5 6 7 8 9 10 11 12 13 14 15 16 17 18 19 20 21 22 23 24 25 26 27 28 29 30 31 32 33 34 35 36 37 38 39 40 41 42 43 44 45 46 47 48 49 50

000
ASUS45 KCYS 121310
RWRWY

WYOMING REGIONAL WEATHER ROUNDUP
NATIONAL WEATHER SERVICE CHEYENNE WY
700 AM MDT SAT JUL 12 2014

NOTE:  "FAIR" INDICATES FEW OR NO CLOUDS BELOW 12,000 FEET
WITH NO SIGNIFICANT WEATHER AND/OR OBSTRUCTIONS TO VISIBILITY.

WYZ001-121400-
YELLOWSTONE NATIONAL PARK

CITY           SKY/WX    TMP DP  RH WIND       PRES   REMARKS
LK YELLOWSTONE   N/A     48  46  93 CALM      30.46R
W YELLOWSTONE  NOT AVBL

$$
WYZ002>013-054>058-071-098>099-121400-
NORTHERN WYOMING

CITY           SKY/WX    TMP DP  RH WIND       PRES   REMARKS
JACKSON        CLOUDY    52  50  93 N5        30.38S
CODY           PTSUNNY   57  52  82 S5        30.28S
GREYBULL       MOSUNNY   66  55  67 W5        30.20R
WORLAND        MOSUNNY   64  55  72 NW5       30.22R
SHERIDAN       MOSUNNY   64  55  72 W12       30.21R
BUFFALO        MOSUNNY   65  52  62 NW17G25   30.23R
GILLETTE       MOSUNNY   61  56  83 S7        30.19R
HULETT         FAIR      61  55  82 MISG      30.21
NEWCASTLE      FAIR      57  55  94 CALM      30.20

$$
WYZ014>020-022>026-101>103-121400-
CENTRAL WYOMING

CITY           SKY/WX    TMP DP  RH WIND       PRES   REMARKS
BIG PINEY      SUNNY     50  45  83 NW3       30.39S
PINEDALE       SUNNY     48  46  93 W5        30.40F
DUBOIS         FAIR      50  43  76 NW12      30.38S
LANDER         MOSUNNY   58  53  84 W5        30.28R
RIVERTON       MOSUNNY   60  58  92 NW6       30.28S
CASPER         MOSUNNY   59  55  87 SW9       30.25R
DOUGLAS        CLOUDY    63  58  83 SE3       30.25R

$$
WYZ021-027>030-104>119-121400-
SOUTHERN WYOMING

CITY           SKY/WX    TMP DP  RH WIND       PRES   REMARKS
EVANSTON       CLEAR     55  52  89 E5        30.38R
KEMMERER       SUNNY     52  46  82 N8        30.40R
FORT BRIDGER     N/A     55  53  94 CALM      30.41R
ROCK SPRINGS   PTSUNNY   58  51  78 CALM      30.35R
DIXON          FAIR      59  57  91 CALM      30.35R
RAWLINS        MOSUNNY   60  54  80 SW7       30.33S
SARATOGA       FAIR      55  54  94 CALM      30.36R
LARAMIE        PTSUNNY   56  55  97 NE5       30.33S FOG
CHEYENNE       FOG       57  56  96 N7        30.27R VSB 1
TORRINGTON     CLOUDY    63  60  90 N5        30.18R

$$



USA.gov is the U.S. government's official web portal to all federal, state and local government web resources and services.